Location: Dresden
(51.0300°N, 13.7800°E)
Time: 07:10:37
(UTC+01:00)

DMSP F15 (USA 147) - Visible Passes

Search period start: 19 January 2026 00:00
Search period end: 29 January 2026 00:00
Orbit: 826 x 842 km, 99.0° (Epoch: 18 January)

Date Brightness Start Highest point End Pass type
(mag) Time Alt. Az. Time Alt. Az. Time Alt. Az.
19 Jan 8.5 06:35:02 10° ENE 06:36:07 11° E 06:37:11 10° E visible
19 Jan 5.8 18:01:56 10° ESE 18:06:42 33° ENE 18:11:28 10° N visible
19 Jan 6.0 19:41:43 10° S 19:46:53 47° W 19:52:06 10° NNW visible
20 Jan 6.1 17:45:44 10° ESE 17:50:06 26° ENE 17:54:29 10° N visible
20 Jan 5.5 19:24:43 10° S 19:30:03 63° WSW 19:35:25 10° NNW visible
20 Jan 8.1 21:10:35 10° W 21:11:28 10° W 21:12:21 10° WNW visible
21 Jan 6.4 17:29:42 10° E 17:33:32 20° NE 17:37:23 10° N visible
21 Jan 5.1 19:07:51 10° SSE 19:13:15 84° WSW 19:18:42 10° NNW visible
21 Jan 7.8 20:51:29 10° WSW 20:54:25 15° W 20:57:22 10° NW visible
22 Jan 6.6 17:13:52 10° E 17:17:01 16° NE 17:20:10 10° NNE visible
22 Jan 5.0 18:51:08 10° SSE 18:56:30 74° ENE 19:01:54 10° NNW visible
22 Jan 7.5 20:33:32 10° SW 20:37:25 20° W 20:41:18 10° NW visible
23 Jan 7.9 07:06:01 10° NE 07:09:56 20° E 07:13:49 10° SE visible
23 Jan 5.2 18:34:32 10° SE 18:39:47 56° ENE 18:45:03 10° N visible
23 Jan 7.1 20:15:57 10° SSW 20:20:26 27° W 20:24:58 10° NW visible
24 Jan 8.1 06:49:58 10° NE 06:52:55 15° E 06:55:52 10° ESE visible
24 Jan 5.5 18:18:05 10° SE 18:23:07 42° ENE 18:28:10 10° N visible
24 Jan 6.6 19:58:37 10° SSW 20:03:31 35° W 20:08:28 10° NNW visible
25 Jan 8.6 06:34:58 10° ENE 06:35:51 10° E 06:36:45 10° E visible
25 Jan 5.8 18:01:44 10° ESE 18:06:28 33° ENE 18:11:13 10° N visible
25 Jan 6.0 19:41:28 10° S 19:46:39 48° W 19:51:52 10° NNW visible
26 Jan 6.1 17:45:32 10° ESE 17:49:52 26° ENE 17:54:14 10° N visible
26 Jan 5.5 19:24:28 10° S 19:29:48 64° WSW 19:35:11 10° NNW visible
26 Jan 8.1 21:10:07 10° W 21:11:13 11° W 21:12:20 10° WNW visible
27 Jan 6.4 17:29:30 10° E 17:33:19 20° NE 17:37:08 10° N visible
27 Jan 5.1 19:07:37 10° SSE 19:13:01 85° WSW 19:18:27 10° NNW visible
27 Jan 7.8 20:51:10 10° WSW 20:54:09 15° W 20:57:10 10° NW visible
28 Jan 5.0 18:50:54 10° SSE 18:56:15 73° ENE 19:01:39 10° NNW visible
28 Jan 7.5 20:33:14 10° SW 20:37:09 20° W 20:41:06 10° NW visible
